Погода в Окуловке

Россия / Новгородская область     58°22′37″N   33°17′55″E
темп.,
°C
ветер,
м/с
пор.,
м/с
влажн.,
%
обл.,
%
осадки,
мм/ч
давл.,
гПа
погр.,
м
7 марта, вс
вс700:00−4юз71690100 1.3 9981192
03:00−3юз71592100 2.9 9931098
06:00−2юз61394100 2.7 988987
09:00−5з61268100 5.1 9881586
12:00−4з7135517 0.1 9892631
15:00−5з6116059 0.6 9902079
18:00−7зсз4117659 0.2 990878
21:00−7зсз6138379 0.5 9901177
8 марта, пн
пн800:00−7зсз71391100 0.5 9911241
03:00−8сз51191100 1.2 994792
06:00−9ссз51091100 0.2 998708
09:00−10с51089100 0.4 1002633
12:00−9с5884100 0.1 1005647
15:00−10ссз4784100 0.1 1008708
18:00−11с4889100 0.1 1010643
21:00−14ссз3996100 0.1 1014403
9 марта, вт
вт900:00−17ссз269898 0.0 1015240
03:00−20ссз249866 0.1 1017122
06:00−22ссз24970 0.0 1018103
09:00−20с249336 0.0 1020198
12:00−15с237512 0.0 1020456
15:00−12с23676 0.0 1021664
18:00−15с22860 0.0 102126
21:00−18всв22940 0.0 102322
10 марта, ср
ср1000:00−19вюв23944 0.0 102450
03:00−20вюв22952 0.0 102540
06:00−21в23950 0.0 102565
09:00−19вюв24880 0.0 1026163
12:00−13в34750 0.0 1027324
15:00−11вюв356922 0.0 1026535
18:00−13в248489 0.0 102698
21:00−15вюв269195 0.0 1026131
11 марта, чт
чт1100:00−17вюв2791100 0.0 1025146
03:00−18вюв379173 0.0 1025157
06:00−18вюв49890 0.0 1023257
09:00−15вюв4108316 0.0 1021366
12:00−10юв598798 0.2 1019488
15:00−7юв598798 0.3 1016548
18:00−7юв41093100 0.1 1013549
21:00−4ююв51292100 0.8 1009860